Theta_e
308 307 307 309 308 306 298 291 289 301 304 294 292 290 295 298 298 299 296 296 294 291 291 289 289 289 292 298 297 290 291 286 281 284 290 293 292 289 290 282 281 285 282 280
308 307 307 308 307 305 295 289 289 302 301 286 288 294 295 298 297 296 295 293 295 293 289 285 290 292 296 297 295 291 291 282 277 279 283 288 287 290 290 288 286 281 277 280
309 307 307 308 307 306 295 290 289 292 294 292 290 290 292 293 298 295 294 292 293 291 289 290 287 290 295 296 296 302 294 282 281 276 281 283 283 287 289 288 282 281 284 286
309 306 307 308 307 306 297 292 288 289 284 289 288 292 293 292 292 295 294 291 292 290 286 288 287 290 291 295 298 293 287 282 283 285 287 288 287 287 288 285 287 283 286 286
309 306 306 307 306 304 295 289 289 290 288 289 289 292 291 292 293 293 290 288 290 290 286 287 286 288 287 287 290 287 287 282 284 284 288 287 286 288 290 290 291 290 289 288
310 306 306 307 305 302 291 291 293 292 291 291 291 291 292 292 293 294 295 293 290 289 290 292 292 292 290 290 288 285 284 282 280 279 286 285 281 287 289 290 291 290 283 288
310 307 305 307 305 302 296 291 295 292 288 290 290 293 293 292 293 291 294 296 290 294 298 295 291 288 289 289 288 288 283 282 281 278 281 275 286 295 293 291 292 292 291 291
311 307 306 306 305 303 297 296 297 293 287 290 290 291 291 292 294 292 292 294 298 296 295 288 285 286 288 290 291 287 287 284 283 276 275 282 288 293 292 289 287 292 291 292
311 308 306 305 306 303 298 298 300 295 289 289 292 290 291 290 289 289 291 297 299 296 291 288 281 279 286 283 287 292 290 290 285 280 278 271 284 293 295 293 282 292 291 290
311 309 306 305 307 305 299 297 300 295 289 293 291 289 289 292 291 288 291 292 293 295 287 282 280 282 291 281 283 284 283 281 278 281 280 280 290 293 295 279 281 290 291 291
311 310 307 306 306 306 300 297 300 296 291 293 294 295 293 293 292 288 291 291 293 291 285 286 287 286 288 283 287 288 282 282 281 283 278 275 293 291 283 287 290 292 292 293
310 310 307 306 305 306 303 295 301 300 292 292 294 295 297 297 297 293 291 290 291 294 287 288 287 284 284 281 275 290 283 287 280 283 280 288 290 290 292 293 291 292 293 295
310 309 307 306 305 306 303 297 298 296 292 292 292 290 297 300 299 300 290 293 298 295 294 289 286 282 283 276 281 287 292 290 281 285 287 288 290 292 293 294 293 295 295 296
309 308 307 306 306 305 304 297 299 296 293 286 288 298 296 302 300 298 298 296 296 297 294 288 286 286 290 287 288 285 287 287 284 284 286 289 291 292 292 294 295 296 297 297
309 308 307 306 305 304 304 300 299 299 293 286 287 292 296 298 298 297 297 295 292 292 290 287 284 286 287 287 287 287 289 284 278 279 285 288 289 291 294 294 294 295 295 296
309 308 307 306 305 304 298 292 298 300 298 289 284 292 294 297 298 297 295 294 296 295 292 290 287 289 289 281 284 289 289 290 287 285 292 292 293 295 296 294 294 295 296 297
309 308 307 305 305 299 294 293 297 300 298 289 286 286 293 299 299 298 297 297 296 294 292 290 286 288 293 287 278 287 290 289 289 292 293 290 293 291 294 294 295 297 297 298
308 307 306 304 304 299 295 299 301 301 295 293 285 286 289 298 294 294 298 295 295 294 292 292 291 292 292 287 290 292 290 290 290 291 294 293 293 293 293 294 294 294 294 295
306 305 303 298 295 292 294 302 303 301 295 287 286 284 284 298 297 297 297 298 290 296 288 290 291 289 286 289 291 291 291 287 288 293 294 291 291 292 293 292 293 292 293 294
303 299 295 290 294 301 303 296 291 291 291 290 286 291 287 292 293 294 294 295 291 287 289 294 290 288 294 294 293 289 289 290 292 287 287 289 290 291 291 291 292 293 293 293
297 293 291 298 302 297 292 288 286 286 283 287 288 289 286 294 288 290 293 290 289 287 289 289 286 285 291 292 290 289 289 288 288 288 290 292 292 291 291 291 292 292 292 292
297 296 299 298 293 290 287 285 287 285 282 288 288 289 290 291 294 289 290 287 288 281 292 288 279 288 289 290 288 287 287 287 288 289 289 292 293 293 292 291 291 291 292 293
298 294 291 289 288 282 282 280 283 285 288 291 292 289 292 291 291 289 288 286 282 293 286 284 287 287 288 288 288 287 287 288 288 288 291 292 293 292 292 291 292 292 292 293
290 288 282 284 283 284 285 286 287 291 295 294 294 292 290 291 287 288 286 288 289 284 284 281 284 286 287 288 288 287 286 287 287 288 290 291 291 290 292 292 292 291 291 292
288 288 282 283 286 290 292 292 292 294 296 295 293 292 290 287 287 287 286 284 281 281 282 281 284 286 287 286 287 286 286 286 286 287 289 289 290 290 289 291 291 291 291 291
291 289 286 287 288 289 290 292 291 297 296 297 295 290 287 287 285 284 283 281 277 278 280 285 285 286 286 285 286 287 288 287 286 287 288 289 289 289 289 290 291 290 291 290
288 286 290 288 289 291 292 294 294 298 295 289 289 285 286 291 282 281 282 279 280 284 284 285 286 285 285 286 287 288 288 287 287 287 288 288 289 289 289 288 289 290 290 290
Wind_Speed
12 14 18 21 21 23 8 3 4 5 4 4 1 2 8 9 5 5 4 1 1 3 2 2 3 4 3 5 5 3 2 4 3 8 7 9 4 3 5 2 3 3 2 7
10 12 15 19 20 14 4 3 4 5 4 4 3 5 7 9 13 9 6 5 4 2 1 2 4 2 6 4 5 7 7 1 3 9 6 6 2 2 3 2 1 4 2 6
9 10 13 16 21 16 3 3 5 6 6 2 3 3 3 9 7 8 5 3 4 4 2 3 3 2 2 6 2 7 8 4 7 7 7 5 6 6 7 6 4 3 9 13
8 8 10 13 19 22 2 3 1 1 5 3 6 3 2 11 8 7 8 3 8 5 3 3 3 2 4 5 4 3 4 5 6 7 9 8 9 12 11 8 14 8 9 11
9 7 7 10 15 21 4 2 3 4 4 5 3 2 2 8 5 2 6 5 10 7 5 6 5 4 4 6 1 2 1 3 1 5 10 7 9 5 9 7 5 10 13 12
9 7 5 6 12 9 2 3 3 1 4 4 4 3 2 7 7 6 10 13 12 13 14 9 9 7 6 6 7 4 3 4 2 5 4 8 4 1 2 4 5 5 5 4
9 8 6 2 4 5 1 2 1 1 4 3 6 7 13 14 5 10 11 15 17 10 1 4 3 4 7 6 7 6 5 4 3 4 6 3 3 4 6 10 12 4 5 7
10 10 8 5 2 2 1 2 0 1 4 4 11 5 5 8 11 12 13 18 7 6 3 2 4 3 2 1 4 7 6 5 1 2 2 6 5 4 4 7 13 4 6 12
10 12 9 7 7 4 1 1 0 1 2 3 3 6 6 4 3 5 7 13 8 1 2 2 1 3 3 2 3 6 5 1 5 2 1 5 4 3 6 5 8 3 6 9
10 13 11 8 8 7 2 2 2 1 2 4 2 3 3 2 4 3 6 7 7 3 2 2 1 3 3 1 2 1 2 2 4 3 3 8 2 5 5 1 5 10 9 13
9 14 12 10 7 10 4 1 3 2 3 7 10 10 7 4 3 2 4 5 3 3 3 0 1 1 2 2 1 2 4 2 2 2 2 8 1 2 1 4 6 11 13 16
9 14 14 11 8 9 7 2 2 2 3 6 3 8 12 12 14 3 3 3 3 2 1 1 2 2 3 2 2 3 2 5 4 7 7 3 2 6 6 2 9 12 16 19
8 14 14 12 9 10 10 2 2 1 3 6 4 8 8 11 15 14 4 3 3 2 2 2 1 2 3 1 4 2 0 2 2 4 2 4 8 2 2 8 12 16 17 20
8 14 13 11 8 5 11 2 2 1 1 4 7 5 7 3 6 12 20 8 5 2 1 1 1 2 4 2 2 3 4 2 1 6 6 10 2 11 14 17 17 19 21 22
8 14 13 10 7 8 6 2 3 2 2 4 7 13 8 10 8 10 13 12 7 2 1 1 3 2 1 1 1 3 3 3 3 5 1 4 12 14 18 17 19 20 22 22
10 15 13 11 8 8 3 2 2 4 3 2 5 5 5 5 4 8 11 9 6 3 2 2 3 4 2 1 2 2 2 3 3 4 6 10 15 13 13 17 19 19 19 21
11 14 12 10 12 3 2 1 1 6 3 2 5 5 5 2 4 2 2 3 3 3 1 2 2 3 2 1 3 3 2 2 4 6 6 6 8 13 17 16 19 19 18 19
12 12 11 6 11 3 2 3 6 5 2 2 3 4 4 3 3 2 2 2 2 1 2 1 3 1 1 3 3 4 1 4 4 6 7 8 12 13 15 14 16 18 19 21
14 15 15 4 1 1 2 5 10 3 2 2 3 2 2 6 2 3 2 3 3 2 3 3 2 2 4 5 3 3 2 3 5 7 8 8 10 14 15 16 18 18 19 21
21 4 2 2 3 5 8 2 2 2 3 3 4 2 3 1 3 3 1 3 3 3 4 1 3 3 1 3 5 3 2 6 5 5 8 11 14 15 17 17 16 16 17 19
2 2 2 1 7 2 2 3 3 2 3 4 4 6 3 3 3 1 4 3 3 2 2 2 1 3 3 4 5 4 4 5 5 4 4 8 11 13 15 16 17 16 18 18
4 4 3 2 2 2 4 3 4 5 4 4 3 4 4 2 4 3 3 2 2 2 3 1 3 1 3 6 5 4 4 5 7 6 6 10 12 12 13 13 15 16 16 17
3 1 3 3 3 5 6 5 4 4 4 3 3 3 3 3 4 4 0 0 1 4 1 3 1 1 4 4 3 2 4 5 6 6 8 11 12 13 13 13 14 15 14 15
3 4 5 5 5 5 5 3 2 3 1 3 4 3 5 4 3 2 2 2 3 3 3 3 3 4 3 2 2 2 5 5 5 6 8 10 11 11 12 11 12 14 14 16
4 4 5 8 4 3 2 3 3 4 1 1 4 3 3 1 2 1 2 2 3 3 2 3 3 5 3 1 1 3 5 5 5 5 6 8 10 10 11 12 12 13 14 14
2 5 4 4 3 4 6 6 6 3 2 3 1 3 1 1 1 2 4 3 4 4 3 3 5 5 3 1 1 3 4 5 5 5 6 7 9 10 10 10 11 12 13 14
4 4 3 4 3 3 2 3 3 2 1 2 4 5 4 1 1 2 3 5 4 3 3 3 5 6 4 3 3 3 3 4 5 6 6 7 7 7 9 12 13 11 12 13
Wind_Direction
318 324 326 330 340 339 37 18 359 300 355 47 6 20 322 303 318 331 296 200 123 169 185 248 249 241 229 220 147 114 45 131 260 251 290 274 199 219 160 248 291 274 284 273
310 321 326 330 338 5 334 9 282 309 65 75 350 325 329 330 342 326 347 12 2 2 163 263 217 306 314 144 143 166 180 124 344 336 351 352 13 179 153 86 342 235 201 268
302 316 326 334 330 348 87 35 352 331 27 56 19 7 319 314 333 321 349 326 8 356 270 220 265 262 358 345 165 144 123 141 171 202 224 202 282 260 242 170 213 239 229 273
289 310 324 338 333 337 83 29 297 200 317 325 331 275 275 293 307 339 323 7 7 332 287 283 239 18 344 357 52 97 115 199 195 238 249 249 264 276 286 215 236 225 261 270
280 295 318 341 339 336 62 57 13 351 282 281 314 303 317 286 317 311 297 331 330 297 248 228 244 183 189 233 9 83 34 249 224 270 264 267 282 299 308 19 324 250 257 274
265 267 295 341 355 4 52 309 338 122 287 307 300 259 265 315 326 282 248 308 309 297 268 246 221 209 202 207 178 172 176 151 110 269 311 306 302 103 288 269 247 258 253 252
251 245 252 273 21 37 40 265 353 332 281 306 289 309 302 292 302 278 283 283 281 253 274 313 271 223 230 212 233 166 150 133 150 274 347 257 238 187 255 292 296 268 302 321
244 227 236 232 179 73 96 301 226 210 284 273 286 310 340 325 298 286 266 279 294 306 42 356 341 332 56 160 210 187 180 138 150 196 207 281 230 230 280 311 297 167 314 315
245 218 220 232 200 192 111 266 9 151 297 252 321 309 325 292 285 298 285 316 296 78 81 70 289 248 188 290 93 55 102 326 132 142 213 252 233 245 315 325 278 108 312 294
262 212 212 226 212 197 164 247 198 150 243 270 279 234 254 282 280 264 296 327 323 3 44 50 177 270 289 132 163 42 337 323 166 167 230 280 226 301 313 234 256 324 325 306
269 206 208 214 211 201 167 243 192 203 240 272 261 269 228 203 193 251 316 319 355 346 41 247 314 314 339 25 211 212 175 157 208 172 219 274 54 358 150 247 322 315 308 297
264 205 205 207 223 212 171 235 183 148 218 262 252 233 252 248 236 271 270 294 317 263 51 337 342 326 19 137 271 45 161 200 198 178 224 215 130 217 266 338 297 294 299 293
253 204 201 205 222 204 178 183 155 183 271 276 256 239 250 224 228 215 229 257 218 293 184 168 230 256 138 211 254 230 0 66 186 19 309 325 292 236 269 302 308 309 304 305
247 198 200 204 220 235 174 182 164 151 279 281 283 318 277 190 193 192 211 252 341 18 26 149 208 246 174 225 246 170 213 14 314 266 311 324 82 333 327 320 318 315 313 307
232 194 195 202 213 227 187 157 197 204 207 288 292 301 256 264 199 199 200 223 243 266 285 102 241 257 32 325 58 249 165 181 146 244 23 252 291 305 311 311 312 310 310 313
219 196 192 193 203 148 93 277 181 186 172 277 290 300 286 322 193 189 189 200 219 209 186 240 279 260 112 112 239 69 135 113 149 264 290 275 284 294 311 311 307 313 314 310
207 190 184 187 165 134 181 216 136 155 136 255 283 286 279 243 232 115 125 151 194 156 222 233 203 288 70 143 234 180 223 280 277 259 289 291 322 312 316 320 314 314 311 317
185 170 157 165 162 76 259 202 168 152 227 260 270 276 303 333 205 168 170 140 116 241 223 222 213 165 208 247 181 147 211 301 273 283 293 279 302 309 319 319 320 325 324 328
136 120 110 85 88 178 235 181 185 182 259 254 244 266 279 348 251 163 164 155 190 149 220 238 119 211 226 222 153 156 204 236 263 299 314 316 322 328 331 328 331 331 326 327
124 98 129 198 207 194 138 144 169 184 197 232 247 254 258 354 313 159 221 176 200 198 231 142 222 249 174 162 107 113 277 283 334 352 336 344 339 340 335 334 328 324 324 325
100 139 182 114 147 162 170 223 219 167 237 220 236 210 223 174 235 279 224 192 185 211 178 219 247 260 227 131 87 49 33 4 343 330 335 352 336 336 335 334 330 327 327 330
140 122 103 118 188 191 245 211 180 214 243 201 210 195 188 234 210 223 239 217 135 190 140 225 258 223 84 98 84 34 9 3 0 344 346 347 346 341 331 329 331 330 329 332
74 133 161 161 153 224 221 212 195 220 198 226 177 184 185 216 222 254 356 46 97 126 194 228 282 137 104 97 92 3 357 9 358 340 346 349 344 334 330 332 333 329 333 336
154 167 180 211 195 228 208 212 225 218 131 352 319 175 192 208 182 175 108 67 134 222 236 233 171 181 152 114 76 57 329 334 5 347 347 342 334 331 335 341 335 334 340 340
166 198 217 219 237 258 206 265 321 289 43 355 298 257 196 280 119 33 87 183 260 216 247 214 174 151 155 129 25 330 329 358 352 337 328 331 330 340 340 344 344 341 341 346
218 217 248 240 233 221 229 236 256 253 191 158 320 305 3 356 111 123 217 149 235 238 212 175 130 143 143 161 294 310 325 350 340 332 330 327 336 336 338 346 356 348 347 346
216 235 235 263 302 256 231 233 217 204 221 207 197 185 176 113 316 282 180 203 218 183 143 131 146 157 176 195 241 287 322 342 336 332 336 331 328 328 1 8 356 350 353 348